User: anonymous   Login
Location: Unspecified
(0.0000°N, 0.0000°E)
Time: 08:34:58
(UTC+00:00)
Language:

FO-29 - Orbit

View from above orbital plane
View from above orbital plane
View from above satellite
View from above satellite

Ground track
Ground track

The orbit data is extracted from the following two-line orbital elements,

1 24278U 96046B   17293.57487282 -.00000013 +00000-0 +23018-4 0  9996
2 24278 098.5415 160.0281 0350706 012.6037 348.3598 13.53079912045587
Epoch (UTC): 20 October 2017 13:47:49
Eccentricity: 0.0350706
inclination: 98.5415°
perigee height: 800 km
apogee height: 1322 km
right ascension of ascending node: 160.0281°
argument of perigee: 12.6037°
revolutions per day: 13.53079912
mean anomaly at epoch: 348.3598°
orbit number at epoch: 4558

The dashed part of the orbit path shows where the satellite is in the earth's shadow,  

DLR